sat.trackr.live / text

‹ back to catalog

EUTELSAT 9B

NORAD 41310 · 2016-005A

PAYLOAD ACTIVE UNKNOWN

§ Identity

Operator
Country
EUTE
Launch date
2016-01-29
Launch site
TYMSC
Launch vehicle
Mass (kg)
RCS (m²)
39.91

Purposes: comms

External: N2YO · Heavens-Above · Gunter

§ Orbital elements

Epoch: 2026-09-20T03:16:42.860352Z

Period
1,436.10 min
Inclination
0.0463°
Eccentricity
0.0002456
Mean motion
1.00271324 rev/d
Perigee alt
35,776.4 km
Apogee alt
35,797.1 km
Semi-major
42,164.9 km
B*
0.0000e+0
RAAN
64.2962°
Arg perigee
148.2997°
Mean anomaly
204.6220°
Rev number
3,906

§ Raw data

EUTELSAT 9B1 41310U 16005A   26263.13660718  .00000057  00000+0  00000+0 0  99922 41310   0.0463  64.2962 0002456 148.2997 204.6220  1.00271324 39064

JSON: /api/v1/satellites/41310 · /tle

For live sub-satellite position, see the globe view (requires WebGL).

§ Visibility from observer

Set your observer location to see the next 7 days of passes ≥ 10°. The values pass through the URL so the page stays shareable.

No JS? Fill the form by hand. The geolocation button needs JavaScript.